When you browse on this site, cookies collect data to enhance your experience and personalize the content and advertising you see.
Visit our Privacy Policy to learn more. By continuing to use the site, you agree to this use of cookies and data.

Hourly Weather Tarasovichi

Today, 9 July, Thursday

Time Temperature Precipitation Wind Pressure Humidity
00:00 +10°C° 0 mm 2 mps 746 mmHg 95%
01:00 +10°C° 0 mm 2 mps 746 mmHg 96%
02:00 +10°C° 0 mm 2 mps 746 mmHg 97%
03:00 +10°C° 0 mm 2 mps 747 mmHg 97%
04:00 +10°C° 0 mm 2 mps 747 mmHg 96%
05:00 +10°C° 0 mm 2 mps 747 mmHg 96%
06:00 +12°C° 0 mm 2 mps 747 mmHg 88%
07:00 +14°C° 0 mm 2 mps 747 mmHg 81%
08:00 +16°C° 0 mm 2 mps 748 mmHg 72%
09:00 +17°C° 0.2 mm 2 mps 748 mmHg 69%
10:00 +18°C° 0.2 mm 3 mps 748 mmHg 65%
11:00 +19°C° 0.2 mm 3 mps 749 mmHg 62%
12:00 +19°C° 0.1 mm 3 mps 749 mmHg 59%
13:00 +20°C° 0.1 mm 4 mps 749 mmHg 56%
14:00 +20°C° 0.1 mm 4 mps 749 mmHg 54%
15:00 +20°C° 0 mm 4 mps 749 mmHg 55%
16:00 +20°C° 0 mm 4 mps 749 mmHg 56%
17:00 +20°C° 0 mm 3 mps 749 mmHg 58%
18:00 +18°C° 0 mm 3 mps 749 mmHg 65%
19:00 +17°C° 0 mm 2 mps 749 mmHg 72%
20:00 +15°C° 0 mm 1 mps 749 mmHg 79%
21:00 +14°C° 0 mm 1 mps 749 mmHg 81%
22:00 +14°C° 0 mm 1 mps 749 mmHg 84%
23:00 +13°C° 0 mm 1 mps 749 mmHg 86%

Tomorrow, 10 July, Friday

Time Temperature Precipitation Wind Pressure Humidity
00:00 +12°C° 0 mm 1 mps 749 mmHg 88%
01:00 +12°C° 0 mm 2 mps 749 mmHg 89%
02:00 +12°C° 0 mm 2 mps 749 mmHg 91%
03:00 +12°C° 0 mm 2 mps 749 mmHg 90%
04:00 +11°C° 0 mm 3 mps 749 mmHg 89%
05:00 +12°C° 0 mm 3 mps 749 mmHg 88%
06:00 +13°C° 0 mm 3 mps 749 mmHg 84%
07:00 +15°C° 0 mm 4 mps 749 mmHg 81%
08:00 +16°C° 0 mm 5 mps 748 mmHg 78%
09:00 +17°C° 0 mm 5 mps 748 mmHg 74%
10:00 +20°C° 0 mm 5 mps 748 mmHg 71%
11:00 +21°C° 0 mm 6 mps 748 mmHg 68%
12:00 +22°C° 0.5 mm 5 mps 748 mmHg 70%
13:00 +23°C° 0.5 mm 5 mps 747 mmHg 73%
14:00 +23°C° 0.5 mm 5 mps 747 mmHg 75%
15:00 +23°C° 0.6 mm 5 mps 747 mmHg 77%
16:00 +25°C° 0.6 mm 4 mps 747 mmHg 80%
17:00 +25°C° 0.6 mm 4 mps 747 mmHg 82%
18:00 +23°C° 0.8 mm 4 mps 747 mmHg 86%
19:00 +22°C° 0.8 mm 3 mps 747 mmHg 89%
20:00 +20°C° 0.8 mm 3 mps 747 mmHg 92%
21:00 +20°C° 0.2 mm 3 mps 747 mmHg 93%
22:00 +19°C° 0.2 mm 3 mps 747 mmHg 95%
23:00 +19°C° 0.2 mm 3 mps 747 mmHg 96%

Day after tomorrow, 11 July, Saturday

Time Temperature Precipitation Wind Pressure Humidity
00:00 +19°C° 0 mm 3 mps 747 mmHg 96%
01:00 +19°C° 0 mm 3 mps 747 mmHg 96%
02:00 +19°C° 0 mm 3 mps 747 mmHg 97%
03:00 +19°C° 0 mm 3 mps 747 mmHg 97%
04:00 +19°C° 0 mm 3 mps 747 mmHg 97%
05:00 +19°C° 0 mm 3 mps 747 mmHg 96%
06:00 +20°C° 0 mm 4 mps 747 mmHg 93%
07:00 +21°C° 0 mm 4 mps 748 mmHg 89%
08:00 +23°C° 0 mm 4 mps 748 mmHg 86%
09:00 +25°C° 0 mm 4 mps 748 mmHg 80%
10:00 +26°C° 0 mm 4 mps 748 mmHg 74%
11:00 +28°C° 0 mm 4 mps 748 mmHg 68%
12:00 +28°C° 1 mm 4 mps 748 mmHg 68%
13:00 +29°C° 1 mm 4 mps 748 mmHg 69%
14:00 +29°C° 1 mm 3 mps 748 mmHg 69%
15:00 +28°C° 1.7 mm 3 mps 748 mmHg 72%
16:00 +28°C° 1.7 mm 3 mps 748 mmHg 76%
17:00 +27°C° 1.7 mm 2 mps 748 mmHg 79%
18:00 +25°C° 1 mm 2 mps 748 mmHg 83%
19:00 +24°C° 1 mm 3 mps 748 mmHg 87%
20:00 +21°C° 1 mm 3 mps 748 mmHg 92%
21:00 +20°C° 1.1 mm 3 mps 748 mmHg 93%
22:00 +19°C° 1.1 mm 3 mps 748 mmHg 94%
23:00 +18°C° 1.1 mm 3 mps 749 mmHg 95%

12 July, Sunday

Time Temperature Precipitation Wind Pressure Humidity
00:00 +17°C° 0.5 mm 3 mps 749 mmHg 95%
01:00 +17°C° 0.5 mm 4 mps 749 mmHg 95%
02:00 +15°C° 0.5 mm 4 mps 749 mmHg 95%
03:00 +14°C° 0.1 mm 4 mps 749 mmHg 95%
04:00 +14°C° 0.1 mm 4 mps 749 mmHg 95%
05:00 +14°C° 0.1 mm 4 mps 749 mmHg 95%
06:00 +14°C° 0 mm 4 mps 749 mmHg 93%
07:00 +14°C° 0 mm 4 mps 749 mmHg 92%
08:00 +14°C° 0 mm 4 mps 749 mmHg 90%
09:00 +15°C° 0 mm 4 mps 749 mmHg 88%
10:00 +15°C° 0 mm 4 mps 749 mmHg 85%
11:00 +15°C° 0 mm 4 mps 750 mmHg 83%
12:00 +17°C° 0 mm 4 mps 749 mmHg 82%
13:00 +17°C° 0 mm 4 mps 749 mmHg 81%
14:00 +18°C° 0 mm 4 mps 749 mmHg 80%
15:00 +18°C° 0 mm 4 mps 749 mmHg 79%
16:00 +18°C° 0 mm 4 mps 749 mmHg 78%
17:00 +19°C° 0 mm 4 mps 748 mmHg 78%
18:00 +18°C° 0 mm 4 mps 748 mmHg 78%
19:00 +17°C° 0 mm 4 mps 748 mmHg 79%
20:00 +15°C° 0 mm 4 mps 748 mmHg 80%
21:00 +15°C° 0 mm 4 mps 748 mmHg 81%
22:00 +15°C° 0 mm 4 mps 747 mmHg 82%
23:00 +14°C° 0 mm 4 mps 747 mmHg 83%

13 July, Monday

Time Temperature Precipitation Wind Pressure Humidity
00:00 +14°C° 0.3 mm 4 mps 747 mmHg 87%
01:00 +14°C° 0.3 mm 4 mps 746 mmHg 91%
02:00 +13°C° 0.3 mm 3 mps 746 mmHg 95%
03:00 +13°C° 0.4 mm 3 mps 746 mmHg 96%
04:00 +13°C° 0.4 mm 3 mps 745 mmHg 96%
05:00 +13°C° 0.4 mm 3 mps 745 mmHg 97%
06:00 +14°C° 0 mm 3 mps 745 mmHg 97%
07:00 +14°C° 0 mm 3 mps 745 mmHg 96%
08:00 +14°C° 0 mm 3 mps 745 mmHg 96%
09:00 +16°C° 0.3 mm 3 mps 744 mmHg 96%
10:00 +16°C° 0.3 mm 3 mps 744 mmHg 95%
11:00 +17°C° 0.3 mm 2 mps 744 mmHg 94%
12:00 +17°C° 0.4 mm 3 mps 744 mmHg 94%
13:00 +17°C° 0.4 mm 3 mps 744 mmHg 94%
14:00 +17°C° 0.4 mm 3 mps 744 mmHg 95%
15:00 +17°C° 0.3 mm 3 mps 743 mmHg 94%
16:00 +17°C° 0.3 mm 3 mps 743 mmHg 94%
17:00 +17°C° 0.3 mm 4 mps 743 mmHg 94%
18:00 +17°C° 0.2 mm 3 mps 743 mmHg 94%
19:00 +16°C° 0.2 mm 3 mps 743 mmHg 95%
20:00 +16°C° 0.2 mm 3 mps 743 mmHg 95%
21:00 +16°C° 0.1 mm 3 mps 742 mmHg 96%
22:00 +16°C° 0.1 mm 3 mps 742 mmHg 96%
23:00 +16°C° 0.1 mm 3 mps 742 mmHg 97%

14 July, Tuesday

Time Temperature Precipitation Wind Pressure Humidity
00:00 +16°C° 0.2 mm 3 mps 742 mmHg 97%
01:00 +16°C° 0.2 mm 3 mps 742 mmHg 97%
02:00 +16°C° 0.2 mm 3 mps 741 mmHg 97%
03:00 +16°C° 0.4 mm 3 mps 741 mmHg 97%
04:00 +16°C° 0.4 mm 3 mps 741 mmHg 97%
05:00 +16°C° 0.4 mm 3 mps 741 mmHg 97%
06:00 +16°C° 0.2 mm 3 mps 740 mmHg 97%
07:00 +16°C° 0.2 mm 3 mps 740 mmHg 97%
08:00 +17°C° 0.2 mm 3 mps 740 mmHg 96%
09:00 +17°C° 0.3 mm 3 mps 740 mmHg 96%
10:00 +17°C° 0.3 mm 3 mps 740 mmHg 96%
11:00 +18°C° 0.3 mm 3 mps 740 mmHg 95%
12:00 +18°C° 0.8 mm 3 mps 740 mmHg 95%
13:00 +19°C° 0.8 mm 3 mps 739 mmHg 94%
14:00 +19°C° 0.8 mm 4 mps 739 mmHg 93%
15:00 +19°C° 2 mm 4 mps 739 mmHg 94%
16:00 +19°C° 2 mm 4 mps 739 mmHg 94%
17:00 +18°C° 2 mm 4 mps 739 mmHg 94%
18:00 +18°C° 2.7 mm 4 mps 738 mmHg 95%
19:00 +18°C° 2.7 mm 4 mps 738 mmHg 96%
20:00 +17°C° 2.7 mm 4 mps 738 mmHg 96%
21:00 +17°C° 1 mm 4 mps 738 mmHg 96%
22:00 +17°C° 1 mm 4 mps 738 mmHg 96%
23:00 +15°C° 1 mm 4 mps 738 mmHg 97%
Show more